When you browse on this site, cookies collect data to enhance your experience and personalize the content and advertising you see.
Visit our Privacy Policy to learn more. By continuing to use the site, you agree to this use of cookies and data.
  • In Latvia
  • List of Countries
  • For 7 days
  • Water Temperature
  • Satellite Maps
  • Weather Map
  • Weather Widgets
  • user-avatar
    Login

    Hourly Weather Lukov Kordon

    Today, 19 June, Wednesday

    Time Temperature Precipitation Wind Pressure Humidity
    00:00 +20°C° 0 mm 1 mps 755 mmHg 64%
    01:00 +20°C° 0 mm 1 mps 755 mmHg 67%
    02:00 +20°C° 0 mm 1 mps 755 mmHg 69%
    03:00 +19°C° 0 mm 1 mps 755 mmHg 71%
    04:00 +21°C° 0 mm 1 mps 755 mmHg 68%
    05:00 +22°C° 0 mm 1 mps 755 mmHg 64%
    06:00 +24°C° 0 mm 1 mps 755 mmHg 60%
    07:00 +25°C° 0 mm 2 mps 755 mmHg 55%
    08:00 +26°C° 0 mm 2 mps 755 mmHg 51%
    09:00 +28°C° 0 mm 2 mps 755 mmHg 46%
    10:00 +29°C° 0 mm 2 mps 755 mmHg 43%
    11:00 +30°C° 0 mm 2 mps 755 mmHg 41%
    12:00 +31°C° 0 mm 3 mps 755 mmHg 38%
    13:00 +30°C° 0 mm 3 mps 755 mmHg 40%
    14:00 +30°C° 0 mm 4 mps 755 mmHg 43%
    15:00 +30°C° 0 mm 4 mps 754 mmHg 45%
    16:00 +29°C° 0 mm 4 mps 754 mmHg 46%
    17:00 +29°C° 0 mm 4 mps 754 mmHg 47%
    18:00 +29°C° 0 mm 4 mps 755 mmHg 48%
    19:00 +27°C° 0 mm 3 mps 755 mmHg 52%
    20:00 +26°C° 0 mm 3 mps 755 mmHg 56%
    21:00 +24°C° 0 mm 3 mps 755 mmHg 61%
    22:00 +22°C° 0 mm 3 mps 755 mmHg 63%
    23:00 +21°C° 0 mm 3 mps 755 mmHg 66%

    Tomorrow, 20 June, Thursday

    Time Temperature Precipitation Wind Pressure Humidity
    00:00 +21°C° 0 mm 3 mps 756 mmHg 68%
    01:00 +20°C° 0 mm 3 mps 756 mmHg 71%
    02:00 +20°C° 0 mm 3 mps 756 mmHg 74%
    03:00 +19°C° 0 mm 3 mps 756 mmHg 76%
    04:00 +20°C° 0 mm 3 mps 756 mmHg 75%
    05:00 +21°C° 0 mm 3 mps 756 mmHg 73%
    06:00 +21°C° 0 mm 3 mps 757 mmHg 71%
    07:00 +24°C° 0 mm 3 mps 757 mmHg 64%
    08:00 +26°C° 0 mm 4 mps 757 mmHg 57%
    09:00 +28°C° 0 mm 4 mps 757 mmHg 50%
    10:00 +29°C° 0 mm 4 mps 757 mmHg 45%
    11:00 +29°C° 0 mm 4 mps 757 mmHg 41%
    12:00 +30°C° 0 mm 5 mps 757 mmHg 36%
    13:00 +32°C° 0 mm 5 mps 757 mmHg 35%
    14:00 +32°C° 0 mm 5 mps 757 mmHg 34%
    15:00 +32°C° 0 mm 5 mps 756 mmHg 33%
    16:00 +32°C° 0 mm 5 mps 757 mmHg 37%
    17:00 +30°C° 0 mm 5 mps 757 mmHg 40%
    18:00 +29°C° 0 mm 5 mps 757 mmHg 43%
    19:00 +28°C° 0 mm 5 mps 757 mmHg 48%
    20:00 +26°C° 0 mm 5 mps 757 mmHg 54%
    21:00 +23°C° 0 mm 4 mps 758 mmHg 59%
    22:00 +23°C° 0 mm 4 mps 758 mmHg 61%
    23:00 +22°C° 0 mm 4 mps 758 mmHg 64%

    Day after tomorrow, 21 June, Friday

    Time Temperature Precipitation Wind Pressure Humidity
    00:00 +21°C° 0 mm 4 mps 758 mmHg 66%
    01:00 +21°C° 0 mm 4 mps 758 mmHg 68%
    02:00 +20°C° 0 mm 3 mps 758 mmHg 71%
    03:00 +20°C° 0 mm 3 mps 759 mmHg 74%
    04:00 +21°C° 0 mm 4 mps 759 mmHg 72%
    05:00 +22°C° 0 mm 4 mps 759 mmHg 70%
    06:00 +22°C° 0 mm 4 mps 759 mmHg 68%
    07:00 +25°C° 0 mm 4 mps 760 mmHg 61%
    08:00 +27°C° 0 mm 5 mps 760 mmHg 54%
    09:00 +28°C° 0 mm 5 mps 760 mmHg 47%
    10:00 +29°C° 0 mm 5 mps 760 mmHg 43%
    11:00 +30°C° 0 mm 5 mps 760 mmHg 39%
    12:00 +32°C° 0 mm 5 mps 760 mmHg 34%
    13:00 +33°C° 0 mm 5 mps 760 mmHg 32%
    14:00 +33°C° 0 mm 5 mps 759 mmHg 30%
    15:00 +34°C° 0 mm 5 mps 759 mmHg 28%
    16:00 +33°C° 0 mm 4 mps 759 mmHg 30%
    17:00 +32°C° 0 mm 4 mps 759 mmHg 33%
    18:00 +32°C° 0 mm 4 mps 759 mmHg 35%
    19:00 +29°C° 0 mm 4 mps 760 mmHg 41%
    20:00 +27°C° 0 mm 4 mps 760 mmHg 47%
    21:00 +25°C° 0 mm 4 mps 760 mmHg 53%
    22:00 +23°C° 0 mm 4 mps 760 mmHg 55%
    23:00 +23°C° 0 mm 4 mps 760 mmHg 57%

    22 June, Saturday

    Time Temperature Precipitation Wind Pressure Humidity
    00:00 +22°C° 0 mm 4 mps 760 mmHg 59%
    01:00 +22°C° 0 mm 3 mps 760 mmHg 61%
    02:00 +21°C° 0 mm 3 mps 761 mmHg 63%
    03:00 +21°C° 0 mm 3 mps 761 mmHg 66%
    04:00 +21°C° 0 mm 3 mps 761 mmHg 65%
    05:00 +22°C° 0 mm 3 mps 761 mmHg 63%
    06:00 +24°C° 0 mm 3 mps 761 mmHg 61%
    07:00 +26°C° 0 mm 3 mps 761 mmHg 56%
    08:00 +27°C° 0 mm 3 mps 761 mmHg 50%
    09:00 +29°C° 0 mm 3 mps 761 mmHg 44%
    10:00 +30°C° 0 mm 3 mps 761 mmHg 40%
    11:00 +31°C° 0 mm 3 mps 761 mmHg 35%
    12:00 +33°C° 0 mm 3 mps 761 mmHg 31%
    13:00 +33°C° 0 mm 3 mps 761 mmHg 30%
    14:00 +34°C° 0 mm 3 mps 761 mmHg 28%
    15:00 +34°C° 0 mm 4 mps 761 mmHg 27%
    16:00 +34°C° 0 mm 4 mps 760 mmHg 29%
    17:00 +33°C° 0 mm 4 mps 760 mmHg 30%
    18:00 +32°C° 0 mm 4 mps 760 mmHg 32%
    19:00 +30°C° 0 mm 4 mps 760 mmHg 37%
    20:00 +28°C° 0 mm 4 mps 761 mmHg 41%
    21:00 +26°C° 0 mm 4 mps 761 mmHg 45%
    22:00 +25°C° 0 mm 3 mps 761 mmHg 49%
    23:00 +24°C° 0 mm 3 mps 761 mmHg 52%

    23 June, Sunday

    Time Temperature Precipitation Wind Pressure Humidity
    00:00 +22°C° 0 mm 3 mps 761 mmHg 55%
    01:00 +22°C° 0 mm 3 mps 761 mmHg 57%
    02:00 +21°C° 0 mm 3 mps 761 mmHg 60%
    03:00 +21°C° 0 mm 2 mps 761 mmHg 62%
    04:00 +22°C° 0 mm 3 mps 761 mmHg 61%
    05:00 +24°C° 0 mm 3 mps 761 mmHg 59%
    06:00 +25°C° 0 mm 3 mps 761 mmHg 58%
    07:00 +27°C° 0 mm 3 mps 761 mmHg 52%
    08:00 +28°C° 0 mm 3 mps 761 mmHg 45%
    09:00 +30°C° 0 mm 3 mps 761 mmHg 39%
    10:00 +32°C° 0 mm 4 mps 761 mmHg 36%
    11:00 +33°C° 0 mm 4 mps 761 mmHg 33%
    12:00 +34°C° 0 mm 4 mps 761 mmHg 30%
    13:00 +34°C° 0 mm 4 mps 760 mmHg 29%
    14:00 +34°C° 0 mm 4 mps 760 mmHg 28%
    15:00 +35°C° 0 mm 4 mps 760 mmHg 27%
    16:00 +34°C° 0 mm 4 mps 760 mmHg 29%
    17:00 +34°C° 0 mm 4 mps 760 mmHg 32%
    18:00 +33°C° 0 mm 4 mps 759 mmHg 34%
    19:00 +30°C° 0 mm 4 mps 760 mmHg 37%
    20:00 +28°C° 0 mm 4 mps 760 mmHg 40%
    21:00 +27°C° 0 mm 4 mps 760 mmHg 44%
    22:00 +26°C° 0 mm 4 mps 760 mmHg 46%
    23:00 +25°C° 0 mm 4 mps 760 mmHg 48%

    24 June, Monday

    Time Temperature Precipitation Wind Pressure Humidity
    00:00 +23°C° 0 mm 4 mps 760 mmHg 50%
    01:00 +23°C° 0 mm 4 mps 760 mmHg 51%
    02:00 +23°C° 0 mm 4 mps 760 mmHg 52%
    03:00 +22°C° 0 mm 4 mps 760 mmHg 53%
    04:00 +23°C° 0 mm 4 mps 760 mmHg 51%
    05:00 +25°C° 0 mm 5 mps 760 mmHg 50%
    06:00 +26°C° 0 mm 5 mps 760 mmHg 48%
    07:00 +28°C° 0 mm 5 mps 760 mmHg 44%
    08:00 +30°C° 0 mm 6 mps 759 mmHg 40%
    09:00 +33°C° 0 mm 6 mps 759 mmHg 36%
    10:00 +35°C° 0 mm 6 mps 759 mmHg 34%
    11:00 +36°C° 0 mm 6 mps 759 mmHg 32%
    12:00 +38°C° 0 mm 6 mps 759 mmHg 30%
    13:00 +39°C° 0 mm 5 mps 758 mmHg 27%
    14:00 +40°C° 0 mm 4 mps 758 mmHg 24%
    15:00 +40°C° 0 mm 4 mps 758 mmHg 22%
    16:00 +40°C° 0 mm 4 mps 757 mmHg 23%
    17:00 +39°C° 0 mm 5 mps 757 mmHg 25%
    18:00 +37°C° 0 mm 5 mps 757 mmHg 27%
    19:00 +35°C° 0 mm 5 mps 757 mmHg 32%
    20:00 +33°C° 0 mm 6 mps 757 mmHg 36%
    21:00 +30°C° 0 mm 6 mps 757 mmHg 40%
    22:00 +30°C° 0 mm 6 mps 757 mmHg 42%
    23:00 +29°C° 0 mm 5 mps 757 mmHg 44%
    Show more